[[{"header":{"parameterUnit":"m.s-1","parameterCategory":1,"la1":30.2991,"la2":30.254,"lo1":-89.0895,"lo2":-89.0444,"dy":0.0017,"dx":0.0017,"nx":28,"ny":28,"refTime":"2023-10-06T21:00:00:Z","depth":0,"parameterNumber":2,"parameterNumberName":"U-component_of_WINDS"},"data":[0,0,0,0,0,0,0,0,0,0,0,0,0,0,0,0,0,0,0,0,0,0,0,0,0,0,0,0,0,0,0,0,0,0,0,0,0,0,0,0,0,0,0,0,0,0,0,0,0,0,0,0,0,0,0,0,0,0,2.0718,2.0718,0,2.0761,2.0761,2.0762,2.0793,2.0794,2.0794,2.0794,2.0834,2.0834,2.0835,0,0,0,0,0,0,0,0,0,0,0,0,0,2.0659,2.066,2.0718,2.0718,2.0719,2.076,2.0761,2.0762,2.0793,2.0794,2.0794,2.0794,2.0833,2.0834,2.0835,0,0,0,0,0,0,0,0,0,0,0,0,0,2.0691,2.066,2.0718,2.074,2.0742,2.076,2.0761,2.0762,2.0793,2.0794,2.0794,2.0794,2.0833,2.0834,2.0835,2.0834,0,0,2.0839,2.0839,0,0,0,0,0,0,0,0,2.069,2.0694,2.0736,2.0738,2.0741,2.0772,2.0755,2.0786,2.0793,2.0774,2.0794,2.0795,2.0813,2.0815,2.0822,2.0836,2.0837,2.0839,2.084,2.084,2.0841,0,0,0,0,0,0,0,2.0687,2.0692,2.0735,2.0737,2.074,2.0746,2.0751,2.0761,2.079,2.0775,2.0778,2.0783,2.0814,2.0821,2.0823,2.0838,2.0839,2.084,2.0841,2.0841,2.0851,2.085,0,0,0,0,0,0,2.0682,2.069,2.0733,2.0736,2.0716,2.0747,2.0752,2.0762,2.079,2.0795,2.0782,2.0784,2.0819,2.0822,2.0825,2.0824,2.084,2.0841,2.0842,2.0851,2.0851,2.085,0,0,0,0,0,0,2.0681,2.0686,2.0732,2.0714,2.072,2.0747,2.0757,2.0762,2.077,2.0795,2.08,2.0784,2.0819,2.0823,2.0831,2.0826,2.0842,2.0843,2.0852,2.0851,2.0851,2.0823,0,0,0,0,0,0,2.0679,2.0685,2.0686,2.0713,2.0721,2.0738,2.0757,2.0763,2.0772,2.0775,2.0799,2.0803,2.082,2.0829,2.0833,2.0828,2.0844,2.0852,2.0852,2.0851,2.0824,2.0821,2.0819,0,0,0,0,0,2.0677,2.0676,2.0686,2.0691,2.0722,2.0738,2.0742,2.0763,2.0771,2.0771,2.0788,2.0802,2.0826,2.083,2.0834,2.0829,2.0853,2.0852,2.0851,2.0825,2.0822,2.0819,0,0,0,0,0,0,2.0645,2.068,2.0691,2.0699,2.0716,2.0743,2.0744,2.0759,2.0772,2.0774,2.0798,2.0803,2.0808,2.082,2.0823,2.0829,2.0841,2.0841,2.0821,2.0817,2.0815,2.0811,2.0845,0,0,0,0,0,2.064,2.0651,2.068,2.0684,2.0692,2.0716,2.0724,2.0739,2.0756,2.0763,2.078,2.0795,2.0806,2.0813,2.0824,2.0827,2.0831,2.0825,2.0822,2.082,2.0819,2.082,2.0817,2.0847,2.0847,2.0847,0,0,2.0627,2.0647,2.0653,2.0678,2.0692,2.0702,2.0722,2.0732,2.0738,2.0764,2.0773,2.0786,2.0804,2.0809,2.0812,2.0819,2.0812,2.0819,2.0817,2.0817,2.0818,2.0815,2.0813,2.0846,2.0846,2.0847,0,0,2.0609,2.0626,2.0631,2.0646,2.0668,2.0684,2.0685,2.0711,2.0721,2.0731,2.075,2.0758,2.0776,2.0788,2.0797,2.0784,2.0797,2.0787,2.0771,2.0772,2.0769,2.0767,2.0761,2.0759,2.0786,2.0786,2.0786,0,2.059,2.0607,2.0632,2.064,2.065,2.0675,2.0679,2.0691,2.0715,2.0721,2.0729,2.0753,2.0767,2.0774,2.0771,2.0778,2.0778,2.0783,2.0768,2.0766,2.0765,2.0759,2.0757,2.0784,2.0784,2.0785,2.0785,0,2.0582,2.0594,2.0595,2.0619,2.0629,2.0635,2.0659,2.0666,2.068,2.0695,2.0703,2.0722,2.0737,2.074,2.0753,2.0749,2.0752,2.0764,2.0777,2.076,2.0755,2.0753,2.0782,2.0783,2.0783,2.0784,0,0,2.0545,2.0583,2.0583,2.0593,2.062,2.0628,2.0635,2.0651,2.0656,2.0672,2.0677,2.0692,2.0703,2.0712,2.0727,2.0728,2.0714,2.0739,2.074,2.0733,2.0709,2.0699,2.0696,2.0724,2.0724,2.0723,2.0707,0,2.053,2.0545,2.0567,2.0574,2.0584,2.0608,2.0613,2.0629,2.0644,2.0653,2.0668,2.0678,2.0692,2.0698,2.07,2.0716,2.071,2.0717,2.0727,2.0727,2.072,2.0694,2.0684,2.0667,2.0705,2.0705,2.0705,0,2.0514,2.053,2.0538,2.0563,2.0568,2.0573,2.0589,2.0598,2.0616,2.0627,2.0638,2.0654,2.0661,2.0673,2.0682,2.0687,2.0692,2.07,2.07,2.07,2.0714,2.0692,2.0663,2.0659,2.0702,2.0702,2.0703,0,2.0484,2.0507,2.0515,2.0524,2.0554,2.0556,2.0568,2.0587,2.0595,2.0609,2.0614,2.0628,2.0635,2.0645,2.0664,2.0672,2.067,2.0685,2.0677,2.0676,2.0674,2.0674,2.0644,2.068,2.068,2.068,2.0681,0,2.0464,2.0468,2.0502,2.0506,2.0511,2.0536,2.0539,2.0553,2.0569,2.0576,2.0598,2.0603,2.0629,2.0636,2.0651,2.0655,2.0659,2.0666,2.0669,2.0663,2.0662,2.0666,2.0666,2.068,2.068,2.068,2.068,0,2.0431,2.0454,2.0464,2.0492,2.0499,2.05,2.0524,2.0528,2.0544,2.0552,2.0555,2.058,2.059,2.061,2.0626,2.0636,2.0636,2.0644,2.063,2.0632,2.0623,2.0623,2.0593,2.0589,2.0629,2.0629,2.0629,0,2.0416,2.0419,2.0448,2.0455,2.0466,2.0477,2.0485,2.051,2.0518,2.0538,2.054,2.0552,2.0563,2.0578,2.0596,2.0608,2.0615,2.0604,2.0617,2.061,2.0613,2.0612,2.0611,2.06,2.06,2.0599,2.0599,0,2.0386,2.0398,2.041,2.0426,2.0436,2.045,2.0465,2.0468,2.0496,2.0503,2.0515,2.0523,2.054,2.0551,2.0566,2.0577,2.0591,2.0595,2.0594,2.0586,2.0577,2.058,2.062,2.0595,2.0595,2.0596,2.0596,2.0596,2.036,2.0364,2.0385,2.0398,2.0412,2.0425,2.043,2.0447,2.0458,2.0474,2.0488,2.0497,2.0514,2.0536,2.0546,2.0553,2.056,2.0559,2.0558,2.0557,2.0553,2.0578,2.0556,2.0556,2.0556,2.0556,2.0556,0,2.033,2.0345,2.0357,2.0377,2.0387,2.0402,2.0419,2.0425,2.0434,2.045,2.0461,2.0473,2.0484,2.0504,2.0516,2.0518,2.0524,2.052,2.0519,2.0521,2.0547,2.0546,2.0514,2.0514,2.0514,2.0514,2.0514,2.0514,2.0316,2.0323,2.0336,2.035,2.0364,2.0375,2.0383,2.0395,2.0407,2.0421,2.0431,2.0444,2.046,2.0474,2.0484,2.049,2.0492,2.0485,2.0492,2.0515,2.0519,2.0523,2.0522,2.0486,2.0486,2.0465,2.0465,2.0465]},{"header":{"parameterUnit":"m.s-1","parameterCategory":1,"la1":30.2991,"la2":30.254,"lo1":-89.0895,"lo2":-89.0444,"dy":0.0017,"dx":0.0017,"nx":28,"ny":28,"refTime":"2023-10-06T21:00:00:Z","depth":0,"parameterNumber":3,"parameterNumberName":"V-component_of_WINDS"},"data":[0,0,0,0,0,0,0,0,0,0,0,0,0,0,0,0,0,0,0,0,0,0,0,0,0,0,0,0,0,0,0,0,0,0,0,0,0,0,0,0,0,0,0,0,0,0,0,0,0,0,0,0,0,0,0,0,0,0,1.1372,1.1374,0,1.1478,1.1479,1.148,1.1495,1.1494,1.1493,1.1493,1.1602,1.1605,1.1609,0,0,0,0,0,0,0,0,0,0,0,0,0,1.118,1.1184,1.1372,1.1374,1.1375,1.1478,1.1479,1.148,1.1496,1.1494,1.1493,1.1492,1.16,1.1605,1.1609,0,0,0,0,0,0,0,0,0,0,0,0,0,1.1272,1.1185,1.1372,1.1395,1.1398,1.1477,1.1479,1.1481,1.1496,1.1494,1.1493,1.1492,1.1599,1.1604,1.161,1.1674,0,0,1.1627,1.163,0,0,0,0,0,0,0,0,1.1267,1.1279,1.139,1.1393,1.1397,1.1472,1.1451,1.1546,1.1496,1.1459,1.1493,1.1491,1.156,1.1568,1.1591,1.1679,1.1684,1.1628,1.1631,1.1634,1.1635,0,0,0,0,0,0,0,1.1261,1.1275,1.1414,1.1392,1.1396,1.1398,1.141,1.1469,1.1516,1.1462,1.1463,1.1475,1.1561,1.1586,1.1594,1.1686,1.1628,1.1633,1.1636,1.1639,1.1823,1.1825,0,0,0,0,0,0,1.125,1.127,1.1411,1.1417,1.1327,1.1403,1.1416,1.1449,1.1515,1.1524,1.1477,1.1476,1.1577,1.1587,1.1598,1.1673,1.1634,1.1639,1.1642,1.1822,1.1824,1.1825,0,0,0,0,0,0,1.1246,1.1263,1.1406,1.1344,1.1362,1.1408,1.1445,1.1452,1.1477,1.1527,1.1535,1.1493,1.1576,1.159,1.1653,1.1677,1.1642,1.1647,1.182,1.1823,1.1825,1.1826,0,0,0,0,0,0,1.1241,1.1261,1.1288,1.1344,1.1365,1.1462,1.1447,1.1455,1.1487,1.1487,1.1545,1.1553,1.1576,1.1645,1.1659,1.1684,1.1651,1.1818,1.1821,1.1824,1.1824,1.1828,1.1831,0,0,0,0,0,1.1234,1.1286,1.1289,1.1306,1.14,1.1463,1.1475,1.1501,1.1489,1.1514,1.1545,1.1551,1.1672,1.1651,1.1667,1.1695,1.1817,1.182,1.1824,1.1822,1.1827,1.1831,0,0,0,0,0,0,1.1233,1.1294,1.1298,1.137,1.1411,1.1465,1.1499,1.1506,1.1552,1.155,1.1579,1.1592,1.1653,1.168,1.1656,1.1756,1.1743,1.175,1.1737,1.1742,1.1745,1.1737,1.1656,0,0,0,0,0,1.1241,1.1288,1.1338,1.1397,1.1417,1.1454,1.1483,1.1498,1.1542,1.1559,1.1595,1.1637,1.1683,1.1714,1.1761,1.1827,1.1838,1.1854,1.1857,1.186,1.1865,1.1897,1.1903,1.1836,1.1836,1.1836,0,0,1.1259,1.1297,1.1326,1.1397,1.1431,1.1477,1.1469,1.152,1.1553,1.1568,1.1628,1.1655,1.1703,1.1767,1.1797,1.1791,1.1885,1.1864,1.1866,1.187,1.1901,1.1907,1.1912,1.1839,1.1838,1.1838,0,0,1.1314,1.1349,1.1399,1.1431,1.148,1.1504,1.1515,1.1567,1.1585,1.1646,1.1656,1.1695,1.1777,1.1809,1.1836,1.1894,1.19,1.1909,1.1928,1.1958,1.1963,1.1968,1.1985,1.1991,1.1914,1.1914,1.1914,0,1.1329,1.14,1.1424,1.1472,1.1501,1.1513,1.1562,1.1592,1.1654,1.1673,1.1666,1.1764,1.1798,1.1866,1.1879,1.1902,1.1913,1.1903,1.196,1.1965,1.197,1.1987,1.1993,1.1914,1.1914,1.1914,1.1914,0,1.1414,1.1462,1.1496,1.1552,1.1585,1.1634,1.1663,1.1693,1.1703,1.1726,1.1785,1.1825,1.1876,1.1894,1.1907,1.1962,1.1957,1.1955,1.1942,1.1977,1.1992,1.1999,1.1915,1.1915,1.1915,1.1914,0,0,1.1475,1.154,1.1552,1.1575,1.1627,1.1664,1.171,1.1759,1.1782,1.1823,1.186,1.1925,1.1922,1.1952,1.1967,1.1994,1.2032,1.1988,1.199,1.1992,1.209,1.209,1.2097,1.2035,1.2037,1.2038,1.2085,0,1.1533,1.1616,1.1636,1.1707,1.1748,1.1757,1.1797,1.1832,1.1853,1.189,1.1913,1.1957,1.1952,1.1969,1.1996,1.2022,1.2051,1.2019,1.2068,1.207,1.2055,1.2106,1.2108,1.2151,1.2092,1.2093,1.2094,0,1.1614,1.1652,1.1726,1.1767,1.1785,1.1821,1.1864,1.19,1.1938,1.1951,1.1981,1.1992,1.2037,1.2021,1.2082,1.2059,1.2079,1.2094,1.2096,1.2102,1.2083,1.211,1.2166,1.2171,1.2104,1.2104,1.2103,0,1.1645,1.1717,1.1769,1.1789,1.1839,1.1862,1.1884,1.1921,1.1947,1.1984,1.2,1.2042,1.2065,1.2096,1.2117,1.2104,1.2174,1.2161,1.2184,1.2183,1.2199,1.2197,1.2256,1.2215,1.2214,1.2214,1.2214,0,1.1707,1.1751,1.1783,1.1815,1.1862,1.1883,1.1929,1.1951,1.1982,1.2016,1.2027,1.2059,1.2085,1.2119,1.2135,1.218,1.2191,1.2201,1.2205,1.22,1.2198,1.2213,1.221,1.2216,1.2216,1.2215,1.2215,0,1.1751,1.1775,1.1831,1.1872,1.1883,1.1916,1.195,1.198,1.1999,1.2042,1.2053,1.2083,1.2123,1.2146,1.2199,1.2209,1.2258,1.2261,1.2245,1.2246,1.2266,1.2263,1.2336,1.2345,1.2299,1.23,1.23,0,1.1789,1.1822,1.1865,1.1887,1.1909,1.1947,1.1972,1.1992,1.2017,1.2059,1.2083,1.2123,1.2157,1.222,1.2246,1.2283,1.2286,1.2309,1.2292,1.2284,1.2283,1.228,1.2282,1.2312,1.2312,1.2313,1.2313,0,1.185,1.1859,1.1895,1.1933,1.1962,1.1994,1.2025,1.2043,1.2067,1.2095,1.2135,1.2161,1.2211,1.2249,1.2288,1.2309,1.2314,1.2317,1.2324,1.2319,1.2307,1.231,1.225,1.2316,1.2316,1.2315,1.2315,1.2315,1.189,1.1918,1.1951,1.1989,1.2013,1.2041,1.2069,1.209,1.2124,1.2166,1.2175,1.2216,1.2247,1.23,1.2321,1.2352,1.2348,1.2359,1.2361,1.2363,1.2362,1.2302,1.2359,1.2359,1.2359,1.2359,1.2359,0,1.1949,1.197,1.2004,1.2046,1.2074,1.2075,1.2108,1.2132,1.2168,1.2197,1.2228,1.2271,1.2307,1.2334,1.237,1.2389,1.2392,1.2398,1.2396,1.24,1.2365,1.2354,1.2394,1.2394,1.2394,1.2394,1.2394,1.2394,1.1984,1.2029,1.204,1.2096,1.2117,1.2156,1.2174,1.2198,1.2221,1.2268,1.2298,1.2314,1.2341,1.2378,1.241,1.2416,1.2428,1.2433,1.244,1.2407,1.2403,1.2399,1.2389,1.2436,1.2436,1.2472,1.2472,1.2472]}]]